Regional Weather Roundup
Issued by NWS

Home | Current Version | Previous Version | Graphics & Text | Print | Product List | Glossary On
Versions: 1 2 3 4 5 6 7 8 9 10 11 12 13 14 15 16 17 18 19 20 21 22 23 24 25 26 27 28 29 30 31 32 33 34 35 36 37 38 39 40 41 42 43 44 45 46 47 48 49 50
000
ASUS43 KDTX 271010
RWRMI
MICHIGAN HOURLY REGIONAL WEATHER ROUNDUP
NATIONAL WEATHER SERVICE DETROIT/PONTIAC MI
500 AM EST FRI FEB 27 2015

NOTE: "FAIR" INDICATES FEW OR NO CLOUDS BELOW 12,000 FEET WITH NO
SIGNIFICANT WEATHER AND/OR OBSTRUCTION TO VISIBILITY.

MIZ047>049-052>055-059>063-066>070-074>076-081>083-271100-
SOUTHEAST LOWER MICHIGAN

CITY           SKY/WX    TMP DP  RH WIND       PRES   REMARKS
ADRIAN         CLEAR     -1  -8  72 N3        30.42R
ALMA           CLEAR    -12 -17  79 CALM      30.43R
ANN ARBOR      CLEAR    -11 -14  86 NW5       30.40R
BAD AXE        CLEAR    -13 -17  82 CALM      30.40R
DETROIT CITY   MOCLDY     2  -5  72 CALM      30.42R
DETROIT        MOCLDY    -1  -6  79 CALM      30.43R
FLINT          CLEAR    -12 -19  71 CALM      30.41R
GROSSE ILE     FOG       -6  -9  84 CALM      30.42R VSB 3/4
HILLSDALE      CLEAR     -7 -13  76 CALM      30.37R
HOWELL         CLEAR     -7 -12  79 CALM      30.39R

CITY           SKY/WX    TMP DP  RH WIND       PRES   REMARKS
JACKSON        CLEAR    -10 -15  78 SW3       30.40R
LAMBERTVILLE   CLEAR     -4  -9  77 CALM      30.43R
LANSING        CLEAR     -9 -14  78 CALM      30.42R
LAPEER         NOT AVBL
MASON          CLEAR    -10 -15  80 CALM      30.41R
MONROE         PTCLDY    -8 -13  77 CALM      30.41R
MT. CLEMENS    CLEAR     -5 -10  81 SW1       30.40R
PONTIAC        CLEAR     -9 -14  78 W3        30.37R
PORT HOPE        N/A     -6 -11  79 W5        30.38R
PORT HURON     CLEAR    -15 -20  76 W3        30.42R
TRI CITIES     CLEAR     -4 -12  68 W3        30.43R
YPSILANTI      CLEAR     -5 -13  68 N6        30.42R
$$
MIZ043>046-050>051-056>058-064>065-071>073-077>080-271100-
SOUTHWEST LOWER MICHIGAN

CITY           SKY/WX    TMP DP  RH WIND       PRES   REMARKS
BATTLE CREEK   CLEAR     -4 -11  72 CALM      30.41R
BENTON HARBOR  CLEAR     -3  -8  79 E3        30.45R
BIG RAPIDS     CLEAR    -17 -23  76 CALM      30.38R
COLDWATER      CLEAR    -10 -15  77 CALM      30.41R
HOLLAND        MOCLDY    -6 -13  71 CALM      30.44R
GRAND RAPIDS   CLEAR     -2 -11  65 SW5       30.42R
KALAMAZOO      CLEAR     -4 -10  75 CALM      30.42R
MARSHALL       CLEAR    -20 -25  75 CALM      30.41R
MUSKEGON       CLOUDY    -6 -13  71 CALM      30.44R
$$
MIZ016>042-271100-
NORTHERN LOWER MICHIGAN

CITY           SKY/WX    TMP DP  RH WIND       PRES   REMARKS
ALPENA         CLEAR    -13 -19  75 W3        30.38R
BEAVER ISLAND  CLEAR    -13 -18  79 CALM      30.36S
BELLAIRE       CLEAR    -22 -29  71 CALM      30.41S
CADILLAC       PTCLDY   -25 -33  65 CALM      30.33R
CHARLEVOIX     CLEAR    -16 -21  78 CALM      30.40S
FRANKFORT      MOSUNNY  -10 -15  80 CALM      30.40R
GAYLORD        CLEAR    -21 -25  81 CALM      30.30R
GRAYLING       CLEAR    -27 -35  66 CALM      30.34S
HARBOR SPRINGS CLEAR    -15 -20  78 CALM      30.36R
HOUGHTON LAKE  CLEAR    -20 -25  77 CALM      30.35R
MANISTEE       MOCLDY    -9 -17  70 CALM      30.41R
OSCODA         CLEAR    -15 -21  75 SW6       30.39R
PELLSTON       CLEAR    -24 -31  69 CALM      30.37R
TRAVERSE CITY  CLEAR    -17 -23  73 CALM      30.39S
$$
MIZ007>008-015-271100-
EASTERN UPPER MICHIGAN

CITY           SKY/WX    TMP DP  RH WIND       PRES   REMARKS
KINROSS        CLEAR     -8  -9  92 SW6       30.32R
MACKINAC ISLAN CLEAR     -4  -9  78 SW7       30.35R
NEWBERRY       CLEAR     -8 -10  89 W8        30.31S
S. S. MARIE      N/A     -7 -13  75 S3        30.32R
$$
MIZ004>006-011>014-085-271100-
CENTRAL UPPER MICHIGAN

CITY           SKY/WX    TMP DP  RH WIND       PRES   REMARKS
MANISTIQUE     PTCLDY    -7 -11  80 MISG      30.36R
ESCANABA       CLEAR     -6 -17  59 W8        30.39S
MENOMINEE      CLEAR     -8 -11  84 NW3       30.40S
SAWYER-GWINN   PTCLDY   -13 -18  79 W3        30.29S
$$
MIZ001>003-009>011-084-271100-
WESTERN UPPER MICHIGAN

CITY           SKY/WX    TMP DP  RH WIND       PRES   REMARKS
IRON MOUNTAIN  CLEAR    -10 -17  71 CALM      30.33
HOUGHTON         N/A    -10 -15  78 NW12      30.30S WCI -30
COPPER HARBOR    N/A      2  -7  66 NW7       30.33R
IRONWOOD       CLEAR     -9 -11  92 W5        30.33R
$$

ABBREVIATIONS USED IN REMARKS
   TC - TEMPERATURE IN CELSIUS
  WCI - WIND CHILL INDEX
   HX - HEAT INDEX
  VSB - VISIBILITY



USA.gov is the U.S. government's official web portal to all federal, state and local government web resources and services.